Content
SEND FEEDBACK

Daily
Averages
Monthly
Summary
United States of America

ST. LOUIS, MISSOURI


Home > North America > United States > Missouri
Elevation: 535 feet     Latitude: 38 45N     Longitude: 090 22W

WEATHER
 
SELECT A DAY
Number of Records: 196,207;   Date Range: 1/1/95 - 7/7/14
 
SHARE

PRINT THIS DATA

[ ← Previous Day ]
WEATHER ALMANAC - MAY 19, 2013
[ Next Day → ]
[ °C ]   °F
Weather ElementAverageHighLow
Temperature80.1 °F90 °F (3:54 pm)66.9 °F (5:54 am)
Dewpoint66.8 °F71.6 °F (1:54 pm)61 °F (7:54 pm)
Humidity65.3 %90 % (5:54 am)46 % (7:54 pm)
Barometer29.78 in29.88 in (9:54 am)29.66 in (6:54 pm)
Wind Speed6.9 mph13.8 mph (2:54 pm)
Wind Gust25.3 mph (4:54 pm)
Weather ElementAverage
Visibility9.2 mi
Wind DirectionSE (135.7 °)

Weather ElementTotal
Precipitation---
Cooling Degree Days13.5 (Base 65)
Growing Degree Days28.5 (Base 50)
Averaged from 23 records on May 19, 2013
WEATHER CONDITIONS BREAKOUT
WIND DIRECTION BREAKOUT
WEATHER BY HOUR - MAY 19, 2013
[ °C ]   °F
Local TimeTemperatureDewpointHumidityBarometerVisibilityWind DirectionWind SpeedGust SpeedPrecipitationEventsConditions
1:54 AM73.0 °F64.9 °F76 %29.86 in10.0 miCalmOvercast
2:54 AM71.1 °F64.0 °F78 %29.84 in10.0 miESE (120°)3.5 mphPartly Cloudy
3:54 AM72.0 °F64.9 °F78 %29.87 in10.0 miCalmMostly Cloudy
4:54 AM69.1 °F64.9 °F87 %29.84 in9.0 miENE (60°)3.5 mphPartly Cloudy
5:54 AM66.9 °F64.0 °F90 %29.84 in5.0 miCalmScattered Clouds
6:54 AM71.6 °F66.2 °F83 %29.84 in8.0 miESE (110°)4.6 mphClear
7:54 AM73.0 °F66.9 °F81 %29.83 in8.0 miVariable3.5 mphOvercast
8:54 AM75.9 °F69.1 °F79 %29.85 in8.0 miSSW (200°)5.8 mphOvercast
9:54 AM77.0 °F70.0 °F79 %29.88 in8.0 miWSW (240°)9.2 mphOvercast
10:54 AM82.0 °F71.1 °F69 %29.85 in8.0 miWest (260°)3.5 mphClear
11:54 AM84.9 °F71.1 °F63 %29.81 in10.0 miSE (140°)4.6 mphClear
12:54 PM87.1 °F71.1 °F59 %29.78 in10.0 miSSE (150°)10.4 mphMostly Cloudy
1:54 PM89.6 °F71.6 °F55 %29.78 in9.0 miSSE (150°)8.1 mphPartly Cloudy
2:54 PM89.6 °F69.8 °F52 %29.75 in9.0 miSouth (180°)13.8 mph19.6 mphScattered Clouds
3:54 PM90.0 °F70.0 °F52 %29.70 in9.0 miSSE (160°)10.4 mph23.0 mphScattered Clouds
4:54 PM90.0 °F68.0 °F48 %29.69 in10.0 miSSE (150°)11.5 mph25.3 mphPartly Cloudy
5:54 PM89.1 °F66.9 °F48 %29.68 in10.0 miSSE (150°)12.7 mph20.7 mphScattered Clouds
6:54 PM86.0 °F66.0 °F51 %29.66 in10.0 miSSE (160°)12.7 mph20.7 mphClear
7:54 PM84.0 °F61.0 °F46 %29.68 in10.0 miSSE (160°)10.4 mph18.4 mphClear
8:54 PM82.0 °F62.1 °F51 %29.70 in10.0 miSouth (170°)6.9 mphScattered Clouds
9:54 PM80.1 °F63.0 °F56 %29.74 in10.0 miSouth (180°)5.8 mphClear
10:54 PM80.1 °F64.0 °F58 %29.77 in10.0 miSSW (200°)9.2 mph19.6 mphClear
11:54 PM79.0 °F66.0 °F64 %29.74 in10.0 miSouth (180°)8.1 mphClear
Hourly data recorded from KSUS, located miles away from St. Louis, Missouri







STORIES FROM OUR PARTNERS